This demonstration page uses our WeatherBlox Daily Observations layout. Learn more.

Left ArrowRight Arrow

40.92945, -100.16068

Hourly Observations for April 24, 2016

Temp ( °F °C ) Dew Point ( °F °C ) Humidity (%) Winds ( mph kmh ) Pressure ( in mb ) Visibility ( mi km ) Precip ( " mm )
12:15 am 00:15 Clear 66 18.9 51 10.5 58 58 S 24 39 29.53 1000 10 16 N/A
12:35 am 00:35 Clear 66 18.8 51 10.3 58 58 S 25 41 29.53 1000 10 16 N/A
12:55 am 00:55 Partly Cloudy 66 19 50 10.2 57 57 S 21 33 29.53 1000 10 16 N/A
1:15 am 01:15 Partly Cloudy 66 19.1 50 10.1 56 56 S 24 39 29.53 1000 10 16 N/A
1:35 am 01:35 Clear 66 19 50 10.1 56 56 S 24 39 29.50 999 10 16 N/A
1:55 am 01:55 Clear 66 18.7 50 10.2 58 58 S 25 41 29.50 999 10 16 N/A
2:15 am 02:15 Clear 65 18.5 51 10.3 59 59 S 24 39 29.50 999 10 16 N/A
2:35 am 02:35 Clear 65 18.5 51 10.4 59 59 S 24 39 29.50 999 10 16 N/A
2:55 am 02:55 Clear 64 18 51 10.5 62 62 S 20 31 29.50 999 10 16 N/A
3:15 am 03:15 Clear 64 17.5 51 10.5 64 64 S 21 33 29.50 999 10 16 N/A
3:35 am 03:35 Clear 63 17.2 51 10.7 66 66 SSE 16 26 29.50 999 10 16 N/A
3:55 am 03:55 Clear 62 16.9 51 10.7 67 67 SSE 15 24 29.50 999 10 16 N/A
4:15 am 04:15 Clear 62 16.6 51 10.8 69 69 SSE 17 28 29.53 1000 10 16 N/A
4:35 am 04:35 Clear 61 16.1 52 10.9 71 71 SSW 10 17 29.50 999 10 16 N/A
4:55 am 04:55 Partly Cloudy 62 16.4 50 10 66 66 SSW 10 17 29.50 999 10 16 N/A
5:15 am 05:15 Mostly Cloudy 64 17.8 47 8.3 54 54 WNW 22 35 29.47 998 10 16 N/A
5:35 am 05:35 Partly Cloudy 61 16.2 45 7 55 55 WNW 15 24 29.50 999 10 16 N/A
5:55 am 05:55 Clear 60 15.4 46 7.5 60 60 W 5 7 29.53 1000 10 16 N/A
6:15 am 06:15 Clear 59 15.2 45 7.3 59 59 N N/A 29.56 1001 10 16 N/A
6:35 am 06:35 Clear 58 14.2 45 7 62 62 N N/A 29.56 1001 10 16 N/A
6:55 am 06:55 Sunny 54 12.2 44 6.9 70 70 S 5 7 29.59 1002 10 16 N/A
7:15 am 07:15 Sunny 55 12.6 43 6.1 65 65 W 7 11 29.56 1001 10 16 N/A
7:35 am 07:35 Sunny 56 13.5 42 5.5 59 59 WNW 8 13 29.56 1001 10 16 N/A
7:55 am 07:55 Sunny 58 14.4 41 5.2 54 54 WSW 3 6 29.59 1002 10 16 N/A
8:15 am 08:15 Sunny 58 14.4 42 5.8 57 57 NW 10 17 29.56 1001 10 16 N/A
8:35 am 08:35 Partly Cloudy 59 15 42 5.6 54 54 NW 6 9 29.59 1002 10 16 N/A
8:55 am 08:55 Partly Cloudy 59 15.2 41 4.9 50 50 NNW 8 13 29.59 1002 10 16 N/A
9:15 am 09:15 Partly Cloudy 61 16 41 5.1 49 49 N 7 11 29.59 1002 10 16 N/A
9:35 am 09:35 Sunny 61 16.1 41 5.1 48 48 NNW 5 7 29.53 1000 10 16 N/A
9:55 am 09:55 Sunny 63 17 40 4.4 43 43 WNW 3 6 29.56 1001 10 16 N/A
10:15 am 10:15 Sunny 64 17.5 40 4.2 41 41 N 6 9 29.53 1000 10 16 N/A
10:35 am 10:35 Partly Cloudy 64 18 39 4.1 40 40 NW 6 9 29.53 1000 10 16 N/A
10:55 am 10:55 Partly Cloudy 65 18.6 38 3.6 37 37 NNW 3 6 29.53 1000 10 16 N/A
11:15 am 11:15 Sunny 65 18.4 40 4.2 39 39 N 5 7 29.53 1000 10 16 N/A
11:35 am 11:35 Sunny 66 19 40 4.4 38 38 N N/A 29.53 1000 10 16 N/A
11:55 am 11:55 Partly Cloudy 67 19.5 39 4.1 36 36 N 5 7 29.50 999 10 16 N/A
12:15 pm 12:15 Sunny 68 20 40 4.2 35 35 NNE 5 7 29.47 998 10 16 N/A
12:35 pm 12:35 Sunny 69 20.7 42 5.3 37 37 N 7 11 29.47 998 10 16 N/A
12:55 pm 12:55 Sunny 69 20.8 39 4 33 33 WNW 5 7 29.47 998 10 16 N/A
1:15 pm 13:15 Sunny 71 21.6 40 4.4 33 33 WNW 5 7 29.47 998 10 16 N/A
1:35 pm 13:35 Sunny 71 21.7 37 2.7 29 29 N N/A 29.47 998 10 16 N/A
1:55 pm 13:55 Sunny 71 21.9 38 3.1 29 29 N N/A 29.44 997 10 16 N/A
2:15 pm 14:15 Sunny 73 22.5 39 3.8 30 30 SSW 7 11 29.41 996 10 16 N/A
2:35 pm 14:35 Sunny 73 22.5 38 3.4 29 29 WSW 5 7 29.41 996 10 16 N/A
2:55 pm 14:55 Sunny 73 22.7 38 3.3 28 28 SE 3 6 29.41 996 10 16 N/A
3:15 pm 15:15 Sunny 74 23.4 41 4.9 30 30 WSW 8 13 29.41 996 10 16 N/A
3:35 pm 15:35 Sunny 74 23.6 37 2.9 26 26 SW 9 15 29.41 996 10 16 N/A
3:55 pm 15:55 Sunny 74 23.6 38 3.1 26 26 SSW 7 11 29.41 996 10 16 N/A
4:15 pm 16:15 Partly Cloudy 74 23.6 35 1.6 24 24 SSW 23 37 29.41 996 10 16 N/A
4:35 pm 16:35 Partly Cloudy 75 23.8 34 1.2 23 23 WSW 17 28 29.41 996 10 16 N/A
4:55 pm 16:55 Sunny 74 23.1 34 1 23 23 WSW 15 24 29.41 996 10 16 N/A
5:15 pm 17:15 Sunny 73 22.5 35 1.4 25 25 WSW 14 22 29.41 996 10 16 N/A
5:35 pm 17:35 Partly Cloudy 71 21.7 33 0.7 25 25 SW 13 20 29.44 997 10 16 N/A
5:55 pm 17:55 Cloudy 69 20.3 37 2.6 31 31 WNW 30 48 29.47 998 10 16 N/A
6:15 pm 18:15 Mostly Cloudy 67 19.3 37 3 34 34 WNW 18 30 29.47 998 10 16 N/A
6:35 pm 18:35 Cloudy with Light Rain 65 18.5 39 4 38 38 W 17 28 29.53 1000 10 16 N/A
6:55 pm 18:55 Mostly Cloudy 65 18.1 43 6 45 45 WNW 9 15 29.53 1000 10 16 N/A
7:15 pm 19:15 Mostly Cloudy 65 18.3 41 4.9 41 41 WNW 13 20 29.50 999 10 16 N/A
7:35 pm 19:35 Mostly Cloudy 63 17.3 40 4.7 44 44 WNW 14 22 29.50 999 10 16 N/A
7:55 pm 19:55 Mostly Cloudy 62 16.5 40 4.6 45 45 W 15 24 29.53 1000 10 16 N/A
8:15 pm 20:15 Partly Cloudy 61 16.1 41 5 48 48 WNW 13 20 29.53 1000 10 16 N/A
8:35 pm 20:35 Partly Cloudy 59 15.2 41 4.9 50 50 WNW 12 19 29.56 1001 10 16 N/A
8:55 pm 20:55 Clear 58 14.2 41 5.2 55 55 WNW 13 20 29.56 1001 10 16 N/A
9:15 pm 21:15 Clear 57 14 41 5.2 56 56 WNW 13 20 29.59 1002 10 16 N/A
9:35 pm 21:35 Clear 58 14.5 41 4.8 52 52 WNW 18 30 29.59 1002 10 16 N/A
9:55 pm 21:55 Clear 58 14.3 40 4.5 52 52 W 22 35 29.59 1002 10 16 N/A
10:15 pm 22:15 Clear 56 13.5 40 4.7 56 56 WNW 22 35 29.59 1002 10 16 N/A
10:35 pm 22:35 Clear 56 13.2 39 4.1 54 54 WNW 18 30 29.59 1002 10 16 N/A
10:55 pm 22:55 Clear 55 12.8 39 4 55 55 W 15 24 29.62 1003 10 16 N/A
11:15 pm 23:15 Clear 55 12.7 39 4 56 56 W 15 24 29.65 1004 10 16 N/A
11:35 pm 23:35 Clear 54 12.4 39 3.7 56 56 WNW 17 28 29.65 1004 10 16 N/A
11:55 pm 23:55 Clear 54 12 39 4 58 58 WNW 16 26 29.62 1003 10 16 N/A

Powered by AerisWeather